Regional Weather Roundup
Issued by NWS Wakefield, VA

Home | Current Version | Previous Version | Graphics & Text | Print | Product List | Glossary On
Versions: 1 2 3 4 5 6 7 8 9 10 11 12 13 14 15 16 17 18 19 20 21 22 23 24 25 26 27 28 29 30 31 32 33 34 35 36 37 38 39 40 41 42 43 44 45 46 47 48 49 50
000
ASUS41 KAKQ 260610
RWRAKQ

REGIONAL WEATHER ROUNDUP
NATIONAL WEATHER SERVICE WAKEFIELD VA
100 AM EST THU FEB 26 2015

Note: "fair" indicates few or no clouds below 12,000 feet with no
significant weather and/or obstructions to visibility. * = Denotes
station may not report precipitation (e.g., rain,snow,etc.),
thunder or fog.

VAZ042-051-052>054-056-260700-
NORTHERN VIRGINIA

CITY           SKY/WX    TMP DP  RH WIND       PRES   REMARKS
WASH NATIONAL  CLOUDY    36  18  48 CALM      29.94F
DULLES         CLOUDY    33  17  51 S5        29.93R
FORT BELVOIR   CLOUDY    31  22  69 CALM      29.95F
QUANTICO       CLOUDY    34  21  59 SE9       29.95F
FREDERICKSBRG* CLOUDY    34  22  59 E6        29.91F
STAFFORD*      CLOUDY    32  18  55 E5        29.95F
WARRENTON      CLOUDY    33  25  72 E5        29.89F
CULPEPER*      CLOUDY    34  21  60 CALM      29.89F
MANASSAS*      CLOUDY    34  19  55 CALM      29.92F
LEESBURG*      CLOUDY    32  27  80 CALM      29.93F
WINCHESTER     CLOUDY    32  14  47 NE3       29.88F
FRONT ROYAL*   CLOUDY    32  19  59 E3        29.86F
LURAY*         MOCLDY    32  25  74 N6        29.83F
$$

VAZ048-049-060>072-079>083-260700-
CENTRAL AND SOUTH CENTRAL VIRGINIA

CITY           SKY/WX    TMP DP  RH WIND       PRES   REMARKS
RICHMOND       LGT SNOW  33  24  69 SE9       29.91F VSB 1
CHESTERFIELD*  CLOUDY    32  16  51 SE8       29.93S
PETERSBURG*    LGT SNOW  32  30  93 E6        29.92F
HANOVER        CLOUDY    35  17  47 SE6       29.91F
TAPPAHANNOCK*  CLOUDY    32  20  61 E5        29.93F
QUINTON*       CLOUDY    34  20  56 SE7       29.91F
CHARLOTTSVILLE CLOUDY    34  18  52 NE6       29.87S
GORDONSVILLE*  CLOUDY    32  19  59 CALM      29.89R
ORANGE*        CLOUDY    34  23  64 CALM      29.90S
LOUISA*        CLOUDY    36  19  51 SE5       29.87R
BUMPASS*       CLOUDY    33  20  57 E5        29.88F
FARMVILLE*     LGT SNOW  35  26  68 S3        29.88R
CREWE*         CLOUDY    31  29  91 SE6       29.89R
FORT PICKETT*  CLOUDY    30  29  96 E5        29.89S
CHASE CITY*    CLOUDY    33  33 100 CALM      29.83F VSB 1
CLARKSVILLE*   CLOUDY    32  32 100 E6        29.82F
SOUTH HILL*    CLOUDY    30  29  95 CALM      29.92S VSB 1
LAWRENCEVILLE* CLOUDY    29  29  99 NE3       29.88F VSB 1
EMPORIA*       LGT SNOW  30  30 100 E6        29.91F
$$

VAZ088>098-260700-
SOUTHEAST VIRGINIA

CITY           SKY/WX    TMP DP  RH WIND       PRES   REMARKS
NORFOLK        LGT SNOW  32  29  88 NE8       29.93F VSB 3/4
VIRGINIA BEACH SNOW      34  27  75 NE7       29.93F VSB 1/2
NORFOLK NAVAL  SNOW      34  30  85 NE7       29.96S VSB 1/2
WEST POINT*    CLOUDY    36  21  54 E7        29.95F
SALUDA*        CLOUDY    32  25  75 SE5       29.95F
NEWPORT NEWS   SNOW      34  30  85 E3        29.94S VSB 1/2
LANGLEY AFB    SNOW      32  32 100 E7        29.95R VSB 1/2
FORT EUSTIS    LGT SNOW  32  32 100 E5        29.91F FOG
WILLIAMSBURG*  CLOUDY    34  30  86 E6        29.93F VSB 3/4
HR EXEC AP*    CLOUDY    30  28  93 CALM      29.97S VSB 3/4
FRANKLIN*      LGT SNOW  30  29  97 NE5       29.92F VSB 1
WAKEFIELD      LGT SNOW  31  29  92 CALM      29.92F VSB 3/4
$$

VAZ020-022-025-037-045-260700-
WEST CENTRAL AND SOUTHWEST VIRGINIA

CITY           SKY/WX    TMP DP  RH WIND       PRES   REMARKS
STAUNTON*      CLOUDY    31  21  67 CALM      29.85F
WAYNESBORO*    CLOUDY    33  14  46 SE5       29.82F
HOT SPRINGS VA CLOUDY    25  13  61 E9        29.69R
LYNCHBURG      LGT SNOW  30  29  96 E7        29.83F VSB 3/4
DANVILLE       LGT SNOW  33  30  88 E3        29.83F VSB 3/4
SOUTH BOSTON*  CLOUDY    32  31  96 E3        29.83F
MARTINSVILLE   LGT SNOW  32  32 100 CALM      29.81F VSB 1
ROANOKE        LGT SNOW  30  28  92 E5        29.85S VSB 3/4
BLACKSBURG     LGT SNOW  28  25  89 E8        29.80R VSB 1
DUBLIN*        LGT SNOW  30  29  96 E5        29.77F VSB 3/4
MARION*        LGT SNOW  29  28  93 NE7       29.74F VSB 3/4
HILLSVILLE*    SNOW      27  26  96 CALM      29.70F VSB 1/2
RICHLANDS*     LGT SNOW  28  26  91 SE7       29.70S VSB 3/4
WISE*          LGT SNOW  28  28 100 CALM      29.72R VSB 3/4
ABINGDON*      LGT SNOW  32  31  95 E9        29.73S
$$

MDZ021>025-VAZ099-100-260700-
SOUTHERN MARYLAND AND THE DELMARVA PENINSULA

CITY           SKY/WX    TMP DP  RH WIND       PRES   REMARKS
PATUXENT RIVER CLOUDY    32  26  78 SE6       29.93F
BAY BRIDGE APT   N/A     32  21  64 E3        29.94F
LEONARDTOWN    CLOUDY    32  23  69 CALM      29.95F
DOVER          CLOUDY    29  25  85 E2        29.97F
GEORGETOWN     CLOUDY    32  22  66 CALM      29.97F
EASTON         CLOUDY    33  23  65 CALM      29.97F
CAMBRIDGE      CLOUDY    36  23  60 SE7       29.93F
SALISBURY      CLOUDY    35  23  61 SE5       29.96F
OCEAN CITY     CLOUDY    33  30  88 CALM      29.99F
WALLOPS ISLAND CLOUDY    32  30  92 E7        29.96F
ACCOMACK*      CLOUDY    32  30  93 E5        29.94F
$$

NCZ012>017-030>032-260700-
NORTH CENTRAL AND EASTERN NORTH CAROLINA

CITY           SKY/WX    TMP DP  RH WIND       PRES   REMARKS
ROANOKE RAPIDS LGT SNOW  30  30 100 NE6       29.88F VSB 3/4
RALEIGH        HVYSLEET  32  30  93 CALM      29.80F VSB 1/4
ELIZABETH CITY NOT AVBL
AHOSKIE*       LGT SNOW  29  28  96 N5        29.90F VSB 3/4
EDENTON*       MIX PCPN  32  32  98 E5        29.88F
CURRITUCK*     LGT SNOW  33  32  98 N7        29.93F VSB 1
KILL DEVIL HLS LGT SNOW  32  32 100 N5        29.86F VSB 1
MANTEO         LGT RAIN  32  32 100 N6        29.87F
CAPE HATTERAS  LGT RAIN  35  34  96 NE10G18   29.80F FOG
TARBORO*       LGT SNOW  32  32 100 NE9       29.84F VSB 1
GOLDSBORO      LGT RAIN  33  33 100 NE14      29.70F FOG     WCI  23
WASHINGTON     RAIN      32  31  98 NE8       29.82F
GREENVILLE     MIX PCPN  32  32 100 NE9       29.84F
NEW BERN       HVY RAIN  34  32  92 NE8       29.79F FOG
WILMINGTON     RAIN      36  34  92 NE10      29.68F FOG
$$

VAZ048-260700-
ELSEWHERE

CITY           SKY/WX    TMP DP  RH WIND       PRES   REMARKS
HARRISBURG PA  CLOUDY    24  16  71 CALM      29.96F
BALTIMORE      CLOUDY    31  18  58 NE3       29.91F
ANNAPOLIS      CLOUDY    32  25  75 SE6       29.92F
ANDREWS AFB    CLOUDY    33  17  53 SE8       29.92F
PHILADELPHIA   CLOUDY    29  21  72 E3        29.99F
HENDERSON NC   LGT SNOW  31  30  95 CALM      29.81F VSB 3/4
GREENSBORO     HVY SNOW  32  30  92 NE10      29.74F VSB 1/4 WCI  24
ROCKY MOUNT    SNOW      32  31  96 NE13      29.81F VSB 1/2 WCI  22
$$

VAZ100-260700-
MARINE

STATION/POSITION TIME  TEMP    WIND        PRES    WAVE   SWELL
                       AIR SEA DIR/SP/G            HT/PER HT/PER
                 (UTC) (F)     (DEG/KT/KT) (MB)    (FT/S) (FT/S)
BRANDYWINE LGT   0600   33 29  170/  7/  7 1014.8S
CAPE MAY NJ      0600   33 31   80/  3/  4 1014.3F
LEWES DE         0600   33 31  170/  4/  5 1014.8R
15NM E FENWICK I 0600   36 35              1014.9F   2/ 9
OCEAN-CITY-INLET 0600   33 33  180/  2/  2 1014.8R
WACHAPREAGUE VA  0600   33 33   40/  5/  7 1014.1F
THOMAS POINT MD  0600   31 31  140/  4/  4 1014.6F
COVE POINT MD    0600   31     170/  8/  9 1013.4F
SOLOMONS ISLAND  0600      33                N/A
BISHOPS HEAD MD  0600   31 32   60/  4/  5 1013.7F
CAMBRIDGE MD     0600   34 32  150/  6/  7 1014.1F
LEWISETTA VA     0600                      1013.7F
RAPPAHANNOCK LGT 0600           60/  7/  8 1014.4F
STINGRAY PT      0600   32      40/  4/  4   N/A
YORK RVR RNG VA  0600   33     150/ 11/ 12 1013.5R
YORKTOWN VA      0600   33 33  130/  7/ 12 1014.0R
DOMINION TERM VA 0600   32     110/  2/  6 1013.7F
KIPTOPEKE VA     0600           50/  4/  5   N/A
CHES BAY BRIDGE  0600   31 33   60/  9/ 10 1013.6R
CAPE HENRY VA    0600   31      50/ 12/ 13 1012.3F
CHESAPEAKE LGHT  0500   36      60/ 15/ 17 1014.2R
WILLOUBY STN VA  0600           80/  9/ 10 1014.1R
S CRANEY ISL VA  0600           30/  5/  6 1013.9R
CAPE HENRY BUOY  0600      36                N/A     3/10   2/11
1ST LANDING BUOY 0600   31      80/ 10/ 12 1013.4F
OFFSHORE WE BUOY 0600      38                N/A     3/ 8   3/ 8
64NM E OF VA BCH 0600   41 52   40/ 17/ 21 1012.3F   4/ 9   3/ 9
DUCK PIER NC     0600   32 35              1011.2F
44100 DUCK FRF   0500      36                N/A     3/ 8   2/11
44056 DUCK FRF   0600                        N/A     3/ 8   2/11
OREGON INLET NC  0600   33 37  340/  2/  3 1011.9F
HATTERAS NC      0600   35 40   30/ 13/ 19 1009.4F
CAPE LOOKOUT NC  0600   37      20/ 15/ 19 1006.3F
$$


USA.gov is the U.S. government's official web portal to all federal, state and local government web resources and services.